TimeEDT,TemperatureF,Dew PointF,Humidity,Sea Level PressureIn,VisibilityMPH,Wind Direction,Wind SpeedMPH,Gust SpeedMPH,PrecipitationIn,Events,Conditions,WindDirDegrees,DateUTC
12:01 AM,62.6,59.0,88,30.14,-9999.0,West,3.5,-,N/A,,Unknown,280,2012-10-05 04:01:00
12:22 AM,62.6,59.0,88,30.14,-9999.0,Calm,Calm,-,N/A,,Unknown,0,2012-10-05 04:22:00
12:43 AM,60.8,59.0,94,30.15,-9999.0,Calm,Calm,-,N/A,,Unknown,0,2012-10-05 04:43:00
1:05 AM,62.6,57.2,82,30.14,-9999.0,WNW,3.5,-,N/A,,Clear,290,2012-10-05 05:05:00
1:26 AM,60.8,57.2,88,30.14,-9999.0,WNW,3.5,-,N/A,,Unknown,300,2012-10-05 05:26:00
1:47 AM,60.8,55.4,82,30.14,-9999.0,WSW,3.5,-,N/A,,Unknown,250,2012-10-05 05:47:00
2:09 AM,59.0,55.4,88,30.14,-9999.0,WSW,3.5,-,N/A,,Unknown,250,2012-10-05 06:09:00
2:51 AM,59.0,55.4,88,30.14,-9999.0,Calm,Calm,-,N/A,,Unknown,0,2012-10-05 06:51:00
3:13 AM,57.2,53.6,88,30.14,-9999.0,Calm,Calm,-,N/A,,Unknown,0,2012-10-05 07:13:00
3:55 AM,55.4,53.6,94,30.13,-9999.0,Calm,Calm,-,N/A,,Unknown,0,2012-10-05 07:55:00
4:17 AM,55.4,53.6,94,30.14,-9999.0,Calm,Calm,-,N/A,,Unknown,0,2012-10-05 08:17:00
4:38 AM,55.4,53.6,94,30.14,-9999.0,Calm,Calm,-,N/A,,Unknown,0,2012-10-05 08:38:00
4:59 AM,55.4,53.6,94,30.14,-9999.0,Calm,Calm,-,N/A,,Unknown,0,2012-10-05 08:59:00
5:21 AM,53.6,51.8,94,30.15,-9999.0,Calm,Calm,-,N/A,,Unknown,0,2012-10-05 09:21:00
5:42 AM,55.4,53.6,94,30.15,-9999.0,Calm,Calm,-,N/A,,Unknown,0,2012-10-05 09:42:00
6:03 AM,53.6,51.8,94,30.15,-9999.0,Calm,Calm,-,N/A,,Unknown,0,2012-10-05 10:03:00
6:25 AM,55.4,51.8,88,30.15,-9999.0,West,3.5,-,N/A,,Unknown,280,2012-10-05 10:25:00
6:46 AM,53.6,51.8,94,30.15,-9999.0,WNW,3.5,-,N/A,,Unknown,290,2012-10-05 10:46:00
7:07 AM,55.4,51.8,88,30.14,-9999.0,West,3.5,-,N/A,,Unknown,280,2012-10-05 11:07:00
7:50 AM,59.0,53.6,82,30.14,-9999.0,West,3.5,-,N/A,,Clear,270,2012-10-05 11:50:00
8:11 AM,60.8,53.6,77,30.14,-9999.0,West,3.5,-,N/A,,Clear,270,2012-10-05 12:11:00
8:32 AM,62.6,55.4,77,30.14,-9999.0,West,3.5,-,N/A,,Clear,260,2012-10-05 12:32:00
8:53 AM,64.4,55.4,73,30.14,-9999.0,West,3.5,-,N/A,,Clear,270,2012-10-05 12:53:00
9:15 AM,68.0,55.4,64,30.14,-9999.0,West,4.6,-,N/A,,Clear,260,2012-10-05 13:15:00
9:36 AM,68.0,57.2,68,30.15,-9999.0,West,4.6,-,N/A,,Clear,270,2012-10-05 13:36:00
9:57 AM,69.8,55.4,60,30.15,-9999.0,WNW,5.8,-,N/A,,Clear,290,2012-10-05 13:57:00
10:18 AM,71.6,55.4,57,30.15,-9999.0,West,4.6,-,N/A,,Clear,270,2012-10-05 14:18:00
10:40 AM,73.4,55.4,53,30.15,-9999.0,WNW,5.8,-,N/A,,Clear,290,2012-10-05 14:40:00
11:01 AM,73.4,55.4,53,30.15,10.0,West,6.9,-,N/A,,Clear,280,2012-10-05 15:01:00
11:22 AM,75.2,55.4,50,30.14,10.0,WNW,8.1,-,N/A,,Clear,300,2012-10-05 15:22:00
11:43 AM,75.2,53.6,47,30.14,10.0,NW,5.8,-,N/A,,Clear,310,2012-10-05 15:43:00
12:05 PM,77.0,55.4,47,30.13,10.0,WNW,5.8,-,N/A,,Clear,300,2012-10-05 16:05:00
12:47 PM,77.0,53.6,44,30.11,10.0,WNW,4.6,-,N/A,,Clear,290,2012-10-05 16:47:00
1:08 PM,77.0,51.8,41,30.10,10.0,SW,3.5,-,N/A,,Scattered Clouds,230,2012-10-05 17:08:00
1:30 PM,77.0,51.8,41,30.09,10.0,Calm,Calm,-,N/A,,Scattered Clouds,0,2012-10-05 17:30:00
1:51 PM,78.8,53.6,42,30.07,10.0,NW,3.5,-,N/A,,Scattered Clouds,320,2012-10-05 17:51:00
2:12 PM,78.8,50.0,36,30.06,10.0,SW,5.8,-,N/A,,Mostly Cloudy,220,2012-10-05 18:12:00
2:33 PM,78.8,51.8,39,30.06,10.0,SW,6.9,-,N/A,,Scattered Clouds,230,2012-10-05 18:33:00
2:34 PM,78.8,51.8,39,30.06,10.0,SW,4.6,-,N/A,,Scattered Clouds,220,2012-10-05 18:34:00
2:55 PM,78.8,51.8,39,30.05,10.0,SW,6.9,-,N/A,,Scattered Clouds,230,2012-10-05 18:55:00
3:16 PM,78.8,53.6,42,30.05,10.0,SW,6.9,-,N/A,,Clear,230,2012-10-05 19:16:00
3:37 PM,78.8,50.0,36,30.04,10.0,West,8.1,-,N/A,,Scattered Clouds,260,2012-10-05 19:37:00
3:59 PM,78.8,50.0,36,30.04,10.0,SW,5.8,-,N/A,,Clear,230,2012-10-05 19:59:00
4:20 PM,78.8,50.0,36,30.04,10.0,SW,6.9,-,N/A,,Clear,220,2012-10-05 20:20:00
4:41 PM,78.8,51.8,39,30.04,10.0,WSW,4.6,-,N/A,,Clear,240,2012-10-05 20:41:00
5:02 PM,77.0,51.8,41,30.04,10.0,WSW,3.5,-,N/A,,Clear,240,2012-10-05 21:02:00
5:23 PM,77.0,53.6,44,30.04,10.0,Calm,Calm,-,N/A,,Clear,0,2012-10-05 21:23:00
5:45 PM,77.0,53.6,44,30.03,-9999.0,Calm,Calm,-,N/A,,Clear,0,2012-10-05 21:45:00
6:06 PM,73.4,59.0,61,30.03,10.0,Calm,Calm,-,N/A,,Clear,0,2012-10-05 22:06:00
6:27 PM,69.8,59.0,68,30.03,10.0,Calm,Calm,-,N/A,,Clear,0,2012-10-05 22:27:00
6:48 PM,68.0,59.0,73,30.03,10.0,Calm,Calm,-,N/A,,Clear,0,2012-10-05 22:48:00
7:10 PM,68.0,59.0,73,30.04,10.0,SSE,3.5,-,N/A,,Clear,150,2012-10-05 23:10:00
7:52 PM,68.0,59.0,73,30.03,10.0,SSE,3.5,-,N/A,,Clear,150,2012-10-05 23:52:00
8:14 PM,68.0,59.0,73,30.03,10.0,Calm,Calm,-,N/A,,Clear,0,2012-10-06 00:14:00
8:35 PM,68.0,57.2,68,30.03,10.0,Calm,Calm,-,N/A,,Clear,0,2012-10-06 00:35:00
8:56 PM,66.2,57.2,73,30.03,10.0,Calm,Calm,-,N/A,,Clear,0,2012-10-06 00:56:00
9:17 PM,66.2,57.2,73,30.03,10.0,Calm,Calm,-,N/A,,Clear,0,2012-10-06 01:17:00
9:39 PM,66.2,57.2,73,30.03,10.0,Calm,Calm,-,N/A,,Clear,0,2012-10-06 01:39:00
10:00 PM,64.4,57.2,77,30.02,10.0,Calm,Calm,-,N/A,,Clear,0,2012-10-06 02:00:00
11:04 PM,64.4,55.4,73,30.01,10.0,SSE,3.5,-,N/A,,Clear,160,2012-10-06 03:04:00
11:25 PM,64.4,55.4,73,30.00,10.0,Calm,Calm,-,N/A,,Clear,0,2012-10-06 03:25:00